Location: Corralito
(14.1667°N, 87.1833°W)
Time: 08:15:12
(UTC+00:00)

Nadezhda 4 Rocket - Pass Details

Date: 10 October 2020
Orbit: 949 x 993 km, 82.9° (Epoch: 20 October)

Event Time Altitude Azimuth Distance (km) Brightness Sun altitude
Rises 23:51:52 0° 350° (N) 3,637 7.1 -5.5°
Reaches altitude 10° 23:54:22 10° 348° (NNW) 2,696 6.4 -6.1°
Maximum altitude 00:00:28 64° 268° (W) 1,066 4.6 -7.6°
Drops below altitude 10° 00:06:38 10° 187° (S) 2,724 6.5 -9.1°
Sets 00:09:10 0° 184° (S) 3,677 7.1 -9.7°
